Weather History for Grand Forks AFB, ND

Change the Weather History Date:

Sunday, March 24, 2013

  Actual Average Record
Temperature  
Mean Temperature 22 °F -  
Max Temperature 25 °F 37 °F 54 °F (2007)
Min Temperature 19 °F 20 °F 3 °F (2002)
Degree Days  
Heating Degree Days 43    
Moisture  
Dew Point 17 °F    
Average Humidity 85    
Maximum Humidity 93    
Minimum Humidity 74    
Precipitation  
Precipitation 0.00 in - - ()
Sea Level Pressure  
Sea Level Pressure 30.21 in    
Wind  
Wind Speed 9 mph (North)    
Max Wind Speed 16 mph    
Max Gust Speed -    
Visibility 9 miles    
Events Snow    
Averages and records for this station are not official NWS values.
T = Trace of Precipitation, MM = Missing Value Source: NWS Daily Summary

Daily Weather History Graph

Daily Weather History Graph

Search for Another Location

Airport:

Trip Planner

Search our weather history database for the weather conditions in past years. The results will help you decide how hot, cold, wet, or windy it might be!

Date:

Astronomy

Mar. 24, 2013 Rise Set
Actual Time 7:23 AM CDT 7:48 PM CDT
Civil Twilight 6:52 AM CDT 8:19 PM CDT
Nautical Twilight 6:16 AM CDT 8:56 PM CDT
Astronomical Twilight 5:37 AM CDT 9:34 PM CDT
Moon 5:09 PM CDT (3/24) 5:45 AM CDT (3/24)
Length of Visible Light 13h 27m
Length of Day
12h 24m
Waxing Gibbous, 92% of the Moon is Illuminated
Mar 24
Waxing Gibbous
Mar 27
Full
Apr 2
Last Quarter
Apr 10
New
Apr 18
First Quarter

Hourly Weather History & Observations

Time (CDT) Temp. Windchill Dew Point Humidity Pressure Visibility Wind Dir Wind Speed Gust Speed Precip Events Conditions
12:55 AM 19.9 °F 12.1 °F 15.3 °F 82% 30.21 in 10.0 mi NNW 5.8 mph - N/A   Overcast
1:55 AM 19.8 °F 10.8 °F 15.4 °F 83% 30.20 in 10.0 mi NNW 6.9 mph - N/A   Overcast
2:03 AM 19.4 °F 11.5 °F 15.8 °F 86% 30.21 in 10.0 mi NNW 5.8 mph - N/A Snow Light Snow
2:14 AM 19.4 °F 11.5 °F 15.8 °F 86% 30.21 in 10.0 mi NNW 5.8 mph - N/A   Overcast
2:18 AM 19.4 °F 11.5 °F 15.8 °F 86% 30.21 in 10.0 mi NNW 5.8 mph - N/A Snow Light Snow
2:22 AM 19.4 °F 10.4 °F 15.8 °F 86% 30.21 in 10.0 mi NNW 6.9 mph - N/A   Overcast
2:24 AM 19.4 °F 11.5 °F 15.8 °F 86% 30.21 in 10.0 mi NNW 5.8 mph - N/A Snow Light Snow
2:34 AM 19.4 °F 11.5 °F 15.8 °F 86% 30.21 in 10.0 mi NNW 5.8 mph - N/A   Overcast
2:36 AM 19.4 °F 10.4 °F 15.8 °F 86% 30.21 in 10.0 mi NNW 6.9 mph - N/A Snow Light Snow
2:37 AM 19.4 °F 10.4 °F 15.8 °F 86% 30.21 in 10.0 mi NNW 6.9 mph - N/A   Overcast
2:41 AM 19.4 °F 10.4 °F 15.8 °F 86% 30.21 in 10.0 mi NNW 6.9 mph - N/A Snow Light Snow
2:55 AM 19.8 °F 10.8 °F 15.4 °F 83% 30.20 in 10.0 mi North 6.9 mph - 0.00 in   Overcast
2:57 AM 19.4 °F 9.5 °F 15.8 °F 86% 30.20 in 10.0 mi NNW 8.1 mph - N/A Snow Light Snow
3:00 AM 19.4 °F 9.5 °F 15.8 °F 86% 30.20 in 10.0 mi NNW 8.1 mph - N/A   Overcast
3:01 AM 19.4 °F 9.5 °F 15.8 °F 86% 30.20 in 10.0 mi NNW 8.1 mph - N/A Snow Light Snow
3:37 AM 19.4 °F 10.4 °F 15.8 °F 86% 30.20 in 10.0 mi NNW 6.9 mph - N/A   Overcast
3:55 AM 20.1 °F 10.3 °F 16.2 °F 85% 30.19 in 10.0 mi NNW 8.1 mph - 0.00 in   Overcast
3:58 AM 19.4 °F 9.5 °F 15.8 °F 86% 30.19 in 10.0 mi North 8.1 mph - N/A Snow Light Snow
4:05 AM 19.4 °F 9.5 °F 15.8 °F 86% 30.19 in 10.0 mi North 8.1 mph - N/A   Overcast
4:14 AM 19.4 °F 10.4 °F 15.8 °F 86% 30.19 in 10.0 mi North 6.9 mph - N/A Snow Light Snow
4:35 AM 19.4 °F 10.4 °F 15.8 °F 86% 30.19 in 10.0 mi North 6.9 mph - N/A   Overcast
4:39 AM 19.4 °F 10.4 °F 17.6 °F 93% 30.19 in 10.0 mi North 6.9 mph - N/A Snow Light Snow
4:55 AM 20.3 °F 11.5 °F 17.2 °F 88% 30.19 in 10.0 mi North 6.9 mph - 0.00 in Snow Light Snow
5:45 AM 21.2 °F 11.7 °F 17.6 °F 86% 30.19 in 10.0 mi North 8.1 mph - N/A   Overcast
5:55 AM 20.1 °F 11.3 °F 17.4 °F 89% 30.19 in 10.0 mi North 6.9 mph - 0.00 in   Overcast
5:56 AM 19.4 °F 10.4 °F 17.6 °F 93% 30.19 in 10.0 mi North 6.9 mph - N/A Snow Light Snow
6:16 AM 21.2 °F 11.7 °F 17.6 °F 86% 30.19 in 10.0 mi North 8.1 mph - N/A   Overcast
6:22 AM 21.2 °F 11.7 °F 17.6 °F 86% 30.20 in 10.0 mi North 8.1 mph - N/A Snow Light Snow
6:28 AM 21.2 °F 11.7 °F 17.6 °F 86% 30.20 in 10.0 mi North 8.1 mph - N/A Snow Light Snow
6:55 AM 20.5 °F 10.8 °F 18.0 °F 90% 30.20 in 10.0 mi North 8.1 mph - 0.00 in Snow Light Snow
7:01 AM 21.2 °F 11.7 °F 17.6 °F 86% 30.20 in 9.0 mi North 8.1 mph - N/A Snow Light Snow
7:08 AM 21.2 °F 10.9 °F 17.6 °F 86% 30.20 in 6.0 mi North 9.2 mph - N/A Snow Light Snow
7:10 AM 21.2 °F 11.7 °F 17.6 °F 86% 30.20 in 6.0 mi North 8.1 mph - N/A Snow Light Snow
7:16 AM 21.2 °F 11.7 °F 17.6 °F 86% 30.20 in 4.0 mi North 8.1 mph - N/A Snow Light Snow
7:18 AM 21.2 °F 11.7 °F 17.6 °F 86% 30.20 in 3.0 mi North 8.1 mph - N/A Snow Light Snow
7:20 AM 21.2 °F 10.9 °F 17.6 °F 86% 30.20 in 2.5 mi North 9.2 mph - N/A Snow Light Snow
7:32 AM 21.2 °F 12.6 °F 17.6 °F 86% 30.21 in 3.0 mi North 6.9 mph - N/A Snow Light Snow
7:44 AM 21.2 °F 10.9 °F 17.6 °F 86% 30.21 in 10.0 mi North 9.2 mph - N/A Snow Light Snow
7:47 AM 21.2 °F 10.9 °F 17.6 °F 86% 30.21 in 10.0 mi NNE 9.2 mph - N/A   Overcast
7:55 AM 20.5 °F 10.0 °F 17.8 °F 89% 30.21 in 10.0 mi NNE 9.2 mph - 0.00 in   Overcast
7:56 AM 21.2 °F 10.9 °F 17.6 °F 86% 30.21 in 9.0 mi NNE 9.2 mph - N/A Snow Light Snow
8:07 AM 21.2 °F 10.9 °F 17.6 °F 86% 30.21 in 6.0 mi NNE 9.2 mph - N/A Snow Light Snow
8:11 AM 21.2 °F 10.1 °F 17.6 °F 86% 30.22 in 10.0 mi NNE 10.4 mph - N/A Snow Light Snow
8:20 AM 21.2 °F 10.1 °F 17.6 °F 86% 30.22 in 9.0 mi NNE 10.4 mph - N/A Snow Light Snow
8:22 AM 21.2 °F 10.9 °F 17.6 °F 86% 30.22 in 9.0 mi NNE 9.2 mph - N/A Snow Light Snow
8:23 AM 21.2 °F 10.9 °F 17.6 °F 86% 30.22 in 9.0 mi NNE 9.2 mph - N/A Snow Light Snow
8:25 AM 21.2 °F 10.1 °F 17.6 °F 86% 30.22 in 9.0 mi NNE 10.4 mph - N/A Snow Light Snow
8:35 AM 21.2 °F 10.1 °F 17.6 °F 86% 30.22 in 6.0 mi NNE 10.4 mph - N/A Snow Light Snow
8:54 AM 21.2 °F 10.9 °F 17.6 °F 86% 30.22 in 9.0 mi NNE 9.2 mph - N/A Snow Light Snow
8:55 AM 21.2 °F 9.5 °F 18.1 °F 88% 30.22 in 10.0 mi NNE 11.5 mph - 0.00 in   Overcast
8:59 AM 21.2 °F 10.9 °F 17.6 °F 86% 30.22 in 6.0 mi NNE 9.2 mph - N/A Snow Light Snow
9:15 AM 21.2 °F 7.8 °F 17.6 °F 86% 30.22 in 7.0 mi NNE 15.0 mph - N/A Snow Light Snow
9:30 AM 21.2 °F 9.5 °F 17.6 °F 86% 30.22 in 5.0 mi NNE 11.5 mph - N/A Snow Light Snow
9:34 AM 21.2 °F 10.1 °F 17.6 °F 86% 30.22 in 5.0 mi North 10.4 mph - N/A Snow Light Snow
9:55 AM 21.0 °F 8.1 °F 17.6 °F 87% 30.22 in 4.0 mi NNE 13.8 mph - 0.00 in Snow Light Snow
9:56 AM 21.2 °F 8.3 °F 17.6 °F 86% 30.22 in 5.0 mi NNE 13.8 mph - N/A Snow Light Snow
10:14 AM 21.2 °F 7.8 °F 17.6 °F 86% 30.22 in 3.0 mi NNE 15.0 mph - N/A Snow Light Snow
10:23 AM 21.2 °F 8.3 °F 17.6 °F 86% 30.22 in 3.0 mi NNE 13.8 mph - N/A Snow Light Snow
10:37 AM 21.2 °F 7.3 °F 17.6 °F 86% 30.22 in 7.0 mi NNE 16.1 mph - N/A Snow Light Snow
10:40 AM 21.2 °F 8.3 °F 17.6 °F 86% 30.22 in 8.0 mi NNE 13.8 mph - N/A Snow Light Snow
10:45 AM 21.2 °F 8.3 °F 17.6 °F 86% 30.22 in 10.0 mi North 13.8 mph - N/A   Overcast
10:55 AM 21.2 °F 7.8 °F 16.9 °F 83% 30.22 in 10.0 mi NNE 15.0 mph - 0.00 in   Overcast
11:05 AM 21.2 °F 9.5 °F 15.8 °F 80% 30.23 in 10.0 mi NNE 11.5 mph - N/A   Overcast
11:32 AM 21.2 °F 7.8 °F 17.6 °F 86% 30.23 in 10.0 mi North 15.0 mph - N/A   Overcast
11:55 AM 22.1 °F 8.9 °F 16.9 °F 80% 30.22 in 10.0 mi NNE 15.0 mph - N/A   Overcast
12:55 PM 22.8 °F 10.4 °F 17.2 °F 79% 30.22 in 10.0 mi North 13.8 mph - N/A   Overcast
1:55 PM 23.4 °F 11.1 °F 17.2 °F 77% 30.22 in 10.0 mi North 13.8 mph - N/A   Overcast
2:55 PM 23.7 °F 10.5 °F 16.9 °F 75% 30.22 in 10.0 mi North 16.1 mph - N/A   Scattered Clouds
3:55 PM 24.8 °F 12.9 °F 17.8 °F 75% 30.22 in 10.0 mi North 13.8 mph - N/A   Mostly Cloudy
4:55 PM 25.3 °F 13.1 °F 18.1 °F 74% 30.22 in 10.0 mi North 15.0 mph - N/A   Overcast
5:55 PM 25.2 °F 12.4 °F 18.9 °F 77% 30.23 in 10.0 mi North 16.1 mph - N/A   Overcast
6:55 PM 24.1 °F 11.0 °F 18.3 °F 79% 30.25 in 10.0 mi North 16.1 mph - N/A   Overcast
7:55 PM 23.4 °F 11.1 °F 18.3 °F 81% 30.25 in 10.0 mi North 13.8 mph - N/A   Overcast
8:55 PM 23.0 °F 11.1 °F 18.3 °F 82% 30.26 in 10.0 mi North 12.7 mph - N/A   Overcast
9:55 PM 21.7 °F 9.6 °F 17.1 °F 82% 30.27 in 10.0 mi North 12.7 mph - N/A   Overcast
10:55 PM 20.3 °F 8.3 °F 15.6 °F 82% 30.27 in 10.0 mi North 11.5 mph - N/A   Overcast
11:55 PM 20.1 °F 7.5 °F 15.4 °F 82% 30.28 in 10.0 mi North 12.7 mph - N/A   Overcast